{"data":{"norad_id":62977,"epoch":"2026-05-25T04:19:37.232256Z","epoch_age_seconds":59386,"freshness":"FRESH","line1":"1 62977U 25030G   26145.18029204 -.00000096  00000+0  60752-4 0  9994","line2":"2 62977  50.0073 318.1024 0001230  92.9464 267.1549 13.29325212 62807","mean_motion":13.29325212,"eccentricity":0.000123,"inclination_deg":50.0073,"raan_deg":318.1024,"arg_perigee_deg":92.9464,"mean_anomaly_deg":267.1549,"bstar":6.0752e-5,"rev_number":6280,"period_min":108.32563672162,"perigee_km":1148.3836706834,"apogee_km":1150.2354225339,"semimajor_km":7527.4465466086,"source":"CELESTRAK","updated_at":"2026-05-25T13:38:03.396848Z"}}